Tracking 30261 objects as of 18-Feb-2025
HD Live streaming from Space Station
objects crossing your sky now

STARLINK-5119

Track STARLINK-5119 now!
10-day predictions
STARLINK-5119 is classified as:


NORAD ID: 53986
Int'l Code: 2022-125Y
Perigee: 545.9 km
Apogee: 547.9 km
Inclination: 53.2 °
Period: 95.4 minutes
Semi major axis: 6917 km
RCS: Unknown
Launch date: October 5, 2022
Source: United States (US)
Launch site: AIR FORCE WESTERN TEST RANGE (AFWTR)
Your satellite tracking list
Your tracking list is empty




NASA's NSSDC Master Catalog

Two Line Element Set (TLE):
1 53986U 22125Y   25048.94217741  .00000060  00000-0  21897-4 0  9994
2 53986  53.2180 131.0036 0001506  85.3646 274.7518 15.08835832131596
Source of the keplerian elements: AFSPC